When you browse on this site, cookies collect data to enhance your experience and personalize the content and advertising you see.
Visit our Privacy Policy to learn more. By continuing to use the site, you agree to this use of cookies and data.
  • In Hungary
  • List of Countries
  • For 7 days
  • Water Temperature
  • Satellite Maps
  • Weather Map
  • News
  • Weather Widgets
  • user-avatar
    Login

    Hourly Weather Peredove

    Today, 10 December, Monday

    Time Temperature Precipitation Wind Pressure Humidity
    00:00 +5°C° 0 mm 3 mps 748 mmHg 81%
    01:00 +5°C° 0 mm 3 mps 747 mmHg 80%
    02:00 +5°C° 0 mm 3 mps 747 mmHg 81%
    03:00 +5°C° 0.2 mm 3 mps 746 mmHg 80%
    04:00 +6°C° 0.2 mm 2 mps 746 mmHg 80%
    05:00 +6°C° 0.2 mm 2 mps 746 mmHg 79%
    06:00 +6°C° 0.4 mm 2 mps 746 mmHg 80%
    07:00 +6°C° 0.4 mm 2 mps 746 mmHg 81%
    08:00 +7°C° 0 mm 2 mps 745 mmHg 81%
    09:00 +7°C° 0.4 mm 2 mps 745 mmHg 81%
    10:00 +7°C° 0.4 mm 2 mps 745 mmHg 81%
    11:00 +8°C° 0.4 mm 2 mps 745 mmHg 81%
    12:00 +8°C° 0.2 mm 2 mps 745 mmHg 82%
    13:00 +8°C° 0.2 mm 2 mps 745 mmHg 84%
    14:00 +8°C° 0.2 mm 2 mps 746 mmHg 86%
    15:00 +8°C° 0 mm 2 mps 746 mmHg 88%
    16:00 +7°C° 0 mm 2 mps 746 mmHg 90%
    17:00 +7°C° 0 mm 2 mps 746 mmHg 93%
    18:00 +7°C° 0 mm 2 mps 746 mmHg 93%
    19:00 +7°C° 0 mm 1 mps 746 mmHg 94%
    20:00 +7°C° 0 mm 1 mps 746 mmHg 95%
    21:00 +7°C° 0 mm 1 mps 746 mmHg 95%
    22:00 +6°C° 0 mm 2 mps 746 mmHg 95%
    23:00 +6°C° 0 mm 2 mps 746 mmHg 95%

    Tomorrow, 11 December, Tuesday

    Time Temperature Precipitation Wind Pressure Humidity
    00:00 +5°C° 0 mm 3 mps 746 mmHg 95%
    01:00 +5°C° 0 mm 4 mps 745 mmHg 95%
    02:00 +5°C° 0 mm 5 mps 744 mmHg 94%
    03:00 +4°C° 0.4 mm 6 mps 744 mmHg 94%
    04:00 +4°C° 0.4 mm 7 mps 743 mmHg 93%
    05:00 +4°C° 0.4 mm 8 mps 742 mmHg 93%
    06:00 +5°C° 2.1 mm 8 mps 742 mmHg 93%
    07:00 +5°C° 2.1 mm 8 mps 741 mmHg 94%
    08:00 +5°C° 2.1 mm 8 mps 740 mmHg 94%
    09:00 +6°C° 0.5 mm 7 mps 740 mmHg 93%
    10:00 +7°C° 0.5 mm 6 mps 740 mmHg 92%
    11:00 +8°C° 0.5 mm 5 mps 740 mmHg 91%
    12:00 +8°C° 1.8 mm 5 mps 739 mmHg 93%
    13:00 +7°C° 1.8 mm 5 mps 739 mmHg 95%
    14:00 +7°C° 1.8 mm 6 mps 739 mmHg 97%
    15:00 +5°C° 2 mm 7 mps 739 mmHg 95%
    16:00 +3°C° 2 mm 9 mps 740 mmHg 94%
    17:00 +3°C° 2 mm 10 mps 740 mmHg 93%
    18:00 +2°C° 1 mm 10 mps 741 mmHg 91%
    19:00 +2°C° 1 mm 11 mps 741 mmHg 89%
    20:00 0°C° 1 mm 12 mps 742 mmHg 87%
    21:00 0°C° 0.8 mm 12 mps 743 mmHg 86%
    22:00 +2°C° 0.8 mm 12 mps 743 mmHg 85%
    23:00 +2°C° 0.8 mm 12 mps 744 mmHg 84%

    Day after tomorrow, 12 December, Wednesday

    Time Temperature Precipitation Wind Pressure Humidity
    00:00 +2°C° 0.3 mm 12 mps 745 mmHg 83%
    01:00 +2°C° 0.3 mm 11 mps 746 mmHg 81%
    02:00 +2°C° 0.3 mm 11 mps 747 mmHg 80%
    03:00 +2°C° 0 mm 10 mps 747 mmHg 80%
    04:00 +2°C° 0 mm 9 mps 748 mmHg 80%
    05:00 +2°C° 0 mm 8 mps 748 mmHg 79%
    06:00 +2°C° 0 mm 7 mps 749 mmHg 79%
    07:00 +2°C° 0 mm 7 mps 749 mmHg 80%
    08:00 +2°C° 0 mm 6 mps 750 mmHg 80%
    09:00 +3°C° 0 mm 6 mps 750 mmHg 76%
    10:00 +3°C° 0 mm 6 mps 750 mmHg 72%
    11:00 +4°C° 0 mm 6 mps 750 mmHg 68%
    12:00 +4°C° 0 mm 6 mps 750 mmHg 67%
    13:00 +4°C° 0 mm 6 mps 750 mmHg 67%
    14:00 +4°C° 0 mm 6 mps 751 mmHg 66%
    15:00 +3°C° 0 mm 5 mps 751 mmHg 70%
    16:00 +3°C° 0 mm 5 mps 751 mmHg 73%
    17:00 +3°C° 0 mm 4 mps 751 mmHg 76%
    18:00 +3°C° 0 mm 4 mps 752 mmHg 77%
    19:00 +1°C° 0 mm 4 mps 752 mmHg 77%
    20:00 +2°C° 0 mm 3 mps 753 mmHg 78%
    21:00 +2°C° 0 mm 3 mps 753 mmHg 78%
    22:00 +2°C° 0 mm 3 mps 753 mmHg 78%
    23:00 +2°C° 0 mm 3 mps 754 mmHg 77%

    13 December, Thursday

    Time Temperature Precipitation Wind Pressure Humidity
    00:00 +2°C° 0.1 mm 3 mps 754 mmHg 78%
    01:00 +1°C° 0.1 mm 3 mps 754 mmHg 78%
    02:00 +1°C° 0.1 mm 3 mps 754 mmHg 78%
    03:00 +1°C° 0.2 mm 3 mps 754 mmHg 79%
    04:00 +1°C° 0.2 mm 3 mps 754 mmHg 80%
    05:00 +1°C° 0.2 mm 3 mps 754 mmHg 80%
    06:00 0°C° 0.1 mm 4 mps 754 mmHg 81%
    07:00 +1°C° 0.1 mm 4 mps 755 mmHg 81%
    08:00 +1°C° 0.1 mm 4 mps 755 mmHg 81%
    09:00 +3°C° 0.2 mm 4 mps 755 mmHg 76%
    10:00 +3°C° 0.2 mm 5 mps 755 mmHg 71%
    11:00 +4°C° 0.2 mm 6 mps 756 mmHg 66%
    12:00 +4°C° 0.3 mm 6 mps 755 mmHg 66%
    13:00 +4°C° 0.3 mm 6 mps 755 mmHg 65%
    14:00 +4°C° 0.3 mm 6 mps 755 mmHg 65%
    15:00 +3°C° 0.2 mm 6 mps 755 mmHg 68%
    16:00 +3°C° 0.2 mm 5 mps 755 mmHg 72%
    17:00 +3°C° 0.2 mm 4 mps 755 mmHg 76%
    18:00 +3°C° 0.2 mm 4 mps 756 mmHg 77%
    19:00 +3°C° 0.2 mm 4 mps 756 mmHg 77%
    20:00 +1°C° 0.2 mm 4 mps 756 mmHg 78%
    21:00 +1°C° 0 mm 4 mps 756 mmHg 77%
    22:00 +2°C° 0 mm 3 mps 756 mmHg 77%
    23:00 +2°C° 0 mm 3 mps 756 mmHg 77%

    14 December, Friday

    Time Temperature Precipitation Wind Pressure Humidity
    00:00 +2°C° 0 mm 3 mps 756 mmHg 77%
    01:00 +2°C° 0 mm 3 mps 756 mmHg 78%
    02:00 +3°C° 0 mm 2 mps 756 mmHg 78%
    03:00 +3°C° 0.1 mm 2 mps 756 mmHg 78%
    04:00 +3°C° 0.1 mm 2 mps 756 mmHg 78%
    05:00 +4°C° 0.1 mm 2 mps 756 mmHg 78%
    06:00 +5°C° 0.1 mm 1 mps 756 mmHg 78%
    07:00 +5°C° 0.1 mm 1 mps 756 mmHg 78%
    08:00 +5°C° 0.1 mm 1 mps 756 mmHg 78%
    09:00 +6°C° 0.1 mm 1 mps 757 mmHg 75%
    10:00 +7°C° 0.1 mm 1 mps 757 mmHg 73%
    11:00 +7°C° 0.1 mm 1 mps 758 mmHg 70%
    12:00 +7°C° 0.1 mm 1 mps 758 mmHg 70%
    13:00 +8°C° 0.1 mm 1 mps 758 mmHg 70%
    14:00 +8°C° 0.1 mm 1 mps 758 mmHg 70%
    15:00 +7°C° 0.1 mm 1 mps 759 mmHg 74%
    16:00 +6°C° 0.1 mm 1 mps 759 mmHg 78%
    17:00 +5°C° 0.1 mm 1 mps 760 mmHg 82%
    18:00 +4°C° 0.1 mm 2 mps 760 mmHg 83%
    19:00 +3°C° 0.1 mm 2 mps 760 mmHg 85%
    20:00 +3°C° 0.1 mm 2 mps 761 mmHg 87%
    21:00 +3°C° 0 mm 2 mps 761 mmHg 88%
    22:00 +2°C° 0 mm 2 mps 761 mmHg 89%
    23:00 +2°C° 0 mm 2 mps 762 mmHg 90%

    15 December, Saturday

    Time Temperature Precipitation Wind Pressure Humidity
    00:00 +1°C° 0 mm 2 mps 762 mmHg 89%
    01:00 0°C° 0 mm 3 mps 762 mmHg 89%
    02:00 0°C° 0 mm 3 mps 762 mmHg 89%
    03:00 -1°C° 0 mm 3 mps 762 mmHg 88%
    04:00 -1°C° 0 mm 3 mps 763 mmHg 88%
    05:00 -1°C° 0 mm 2 mps 763 mmHg 87%
    06:00 -1°C° 0 mm 2 mps 763 mmHg 86%
    07:00 -1°C° 0 mm 2 mps 764 mmHg 86%
    08:00 -1°C° 0 mm 2 mps 764 mmHg 85%
    09:00 +1°C° 0 mm 2 mps 764 mmHg 79%
    10:00 +2°C° 0 mm 2 mps 765 mmHg 73%
    11:00 +3°C° 0 mm 2 mps 765 mmHg 67%
    12:00 +3°C° 0 mm 2 mps 765 mmHg 67%
    13:00 +3°C° 0 mm 2 mps 765 mmHg 66%
    14:00 +4°C° 0 mm 2 mps 765 mmHg 66%
    15:00 +3°C° 0 mm 2 mps 765 mmHg 72%
    16:00 +1°C° 0 mm 3 mps 765 mmHg 78%
    17:00 0°C° 0 mm 3 mps 766 mmHg 84%
    18:00 0°C° 0 mm 3 mps 766 mmHg 85%
    19:00 0°C° 0 mm 3 mps 766 mmHg 86%
    20:00 -1°C° 0 mm 3 mps 766 mmHg 87%
    21:00 -1°C° 0 mm 3 mps 766 mmHg 86%
    22:00 -1°C° 0 mm 3 mps 766 mmHg 86%
    23:00 -1°C° 0 mm 3 mps 767 mmHg 86%
    Show more